Time,TemperatureF,DewpointF,PressureIn,WindDirection,WindDirectionDegrees,WindSpeedMPH,WindSpeedGustMPH,Humidity,HourlyPrecipIn,Conditions,Clouds,dailyrainin,SoftwareType,DateUTC
2013-10-07 00:00:00,34.7,23.0,30.11,West,270,3.2,-999.0,62,-99.99,,,0.00,Acu-Link.com,2013-10-07 06:00:00,
2013-10-07 00:15:00,33.8,22.6,30.10,West,270,0.0,-999.0,63,-99.99,,,0.00,Acu-Link.com,2013-10-07 06:15:00,
2013-10-07 00:30:00,33.6,22.4,30.10,West,270,2.2,-999.0,63,-99.99,,,0.00,Acu-Link.com,2013-10-07 06:30:00,
2013-10-07 00:45:00,33.3,22.5,30.10,West,270,1.7,-999.0,64,-99.99,,,0.00,Acu-Link.com,2013-10-07 06:45:00,
2013-10-07 01:06:00,32.9,22.1,30.10,West,270,2.2,-999.0,64,-99.99,,,0.00,Acu-Link.com,2013-10-07 07:06:00,
2013-10-07 01:21:00,33.1,22.3,30.09,West,270,2.7,-999.0,64,-99.99,,,0.00,Acu-Link.com,2013-10-07 07:21:00,
2013-10-07 01:39:00,33.4,22.2,30.09,West,270,2.2,-999.0,63,-99.99,,,0.00,Acu-Link.com,2013-10-07 07:39:00,
2013-10-07 01:54:00,33.3,22.1,30.09,West,270,2.2,-999.0,63,-99.99,,,0.00,Acu-Link.com,2013-10-07 07:54:00,
2013-10-07 02:09:00,33.3,21.7,30.09,West,270,2.2,-999.0,62,-99.99,,,0.00,Acu-Link.com,2013-10-07 08:09:00,
2013-10-07 02:24:00,33.3,21.7,30.09,West,270,2.2,-999.0,62,-99.99,,,0.00,Acu-Link.com,2013-10-07 08:24:00,
2013-10-07 02:40:00,32.7,21.1,30.09,West,270,2.2,-999.0,62,-99.99,,,0.00,Acu-Link.com,2013-10-07 08:40:00,
2013-10-07 02:56:00,32.7,20.8,30.08,West,270,3.2,-999.0,61,-99.99,,,0.00,Acu-Link.com,2013-10-07 08:56:00,
2013-10-07 03:11:00,32.9,20.2,30.08,West,270,2.7,-999.0,59,-99.99,,,0.00,Acu-Link.com,2013-10-07 09:11:00,
2013-10-07 03:26:00,33.1,20.0,30.08,West,270,2.2,-999.0,58,-99.99,,,0.00,Acu-Link.com,2013-10-07 09:26:00,
2013-10-07 03:41:00,30.6,19.2,30.06,West,270,1.1,-999.0,62,-99.99,,,0.00,Acu-Link.com,2013-10-07 09:41:00,
2013-10-07 03:56:00,30.4,19.3,30.05,West,270,0.0,-999.0,63,-99.99,,,0.00,Acu-Link.com,2013-10-07 09:56:00,
2013-10-07 04:11:00,30.6,19.5,30.05,West,270,0.0,-999.0,63,-99.99,,,0.00,Acu-Link.com,2013-10-07 10:11:00,
2013-10-07 04:26:00,30.7,19.2,30.05,West,270,2.2,-999.0,62,-99.99,,,0.00,Acu-Link.com,2013-10-07 10:26:00,
2013-10-07 04:41:00,31.3,19.8,30.05,West,270,2.7,-999.0,62,-99.99,,,0.00,Acu-Link.com,2013-10-07 10:41:00,
2013-10-07 04:57:00,31.8,19.9,30.04,West,270,2.7,-999.0,61,-99.99,,,0.00,Acu-Link.com,2013-10-07 10:57:00,
2013-10-07 05:12:00,31.8,19.9,30.04,West,270,1.7,-999.0,61,-99.99,,,0.00,Acu-Link.com,2013-10-07 11:12:00,
2013-10-07 05:27:00,31.8,20.7,30.04,West,270,2.7,-999.0,63,-99.99,,,0.00,Acu-Link.com,2013-10-07 11:27:00,
2013-10-07 05:42:00,32.0,20.9,30.04,West,270,2.7,-999.0,63,-99.99,,,0.00,Acu-Link.com,2013-10-07 11:42:00,
2013-10-07 05:57:00,32.2,20.7,30.04,West,270,4.2,-999.0,62,-99.99,,,0.00,Acu-Link.com,2013-10-07 11:57:00,
2013-10-07 06:12:00,32.9,20.6,30.03,WSW,247,2.7,-999.0,60,-99.99,,,0.00,Acu-Link.com,2013-10-07 12:12:00,
2013-10-07 06:27:00,33.3,20.5,30.04,West,270,5.3,-999.0,59,-99.99,,,0.00,Acu-Link.com,2013-10-07 12:27:00,
2013-10-07 06:42:00,33.3,20.1,30.03,WNW,292,2.7,-999.0,58,-99.99,,,0.00,Acu-Link.com,2013-10-07 12:42:00,
2013-10-07 06:57:00,33.1,20.0,30.03,West,270,2.2,-999.0,58,-99.99,,,0.00,Acu-Link.com,2013-10-07 12:57:00,
2013-10-07 07:13:00,33.6,20.0,30.03,West,270,2.7,-999.0,57,-99.99,,,0.00,Acu-Link.com,2013-10-07 13:13:00,
2013-10-07 07:28:00,34.5,19.6,30.04,West,270,2.7,-999.0,54,-99.99,,,0.00,Acu-Link.com,2013-10-07 13:28:00,
2013-10-07 07:43:00,36.1,19.7,30.04,West,270,2.7,-999.0,51,-99.99,,,0.00,Acu-Link.com,2013-10-07 13:43:00,
2013-10-07 07:58:00,37.4,20.9,30.04,West,270,1.1,-999.0,51,-99.99,,,0.00,Acu-Link.com,2013-10-07 13:58:00,
2013-10-07 08:13:00,39.0,21.5,30.05,West,270,1.7,-999.0,49,-99.99,,,0.00,Acu-Link.com,2013-10-07 14:13:00,
2013-10-07 08:28:00,40.8,21.6,30.05,West,270,2.2,-999.0,46,-99.99,,,0.00,Acu-Link.com,2013-10-07 14:28:00,
2013-10-07 08:43:00,42.8,21.9,30.05,WNW,292,1.1,-999.0,43,-99.99,,,0.00,Acu-Link.com,2013-10-07 14:43:00,
2013-10-07 08:58:00,44.6,22.9,30.05,West,270,2.2,-999.0,42,-99.99,,,0.00,Acu-Link.com,2013-10-07 14:58:00,
2013-10-07 09:13:00,44.8,22.0,30.05,WSW,247,2.7,-999.0,40,-99.99,,,0.00,Acu-Link.com,2013-10-07 15:13:00,
2013-10-07 09:29:00,46.9,22.6,30.05,WSW,247,1.7,-999.0,38,-99.99,,,0.00,Acu-Link.com,2013-10-07 15:29:00,
2013-10-07 09:44:00,48.4,20.6,30.05,WNW,292,3.2,-999.0,33,-99.99,,,0.00,Acu-Link.com,2013-10-07 15:44:00,
2013-10-07 09:59:00,49.6,21.7,30.04,West,270,3.7,-999.0,33,-99.99,,,0.00,Acu-Link.com,2013-10-07 15:59:00,
2013-10-07 10:14:00,50.0,20.6,30.04,ENE,67,4.7,-999.0,31,-99.99,,,0.00,Acu-Link.com,2013-10-07 16:14:00,
2013-10-07 10:29:00,50.9,20.6,30.04,West,270,2.2,-999.0,30,-99.99,,,0.00,Acu-Link.com,2013-10-07 16:29:00,
2013-10-07 10:44:00,51.8,20.6,30.04,WSW,247,2.7,-999.0,29,-99.99,,,0.00,Acu-Link.com,2013-10-07 16:44:00,
2013-10-07 10:59:00,51.3,21.7,30.03,SE,135,4.2,-999.0,31,-99.99,,,0.00,Acu-Link.com,2013-10-07 16:59:00,
2013-10-07 11:14:00,52.3,21.0,30.03,WSW,247,2.2,-999.0,29,-99.99,,,0.00,Acu-Link.com,2013-10-07 17:14:00,
2013-10-07 11:29:00,52.5,21.2,30.03,WSW,247,4.2,-999.0,29,-99.99,,,0.00,Acu-Link.com,2013-10-07 17:29:00,
2013-10-07 11:45:00,53.4,21.1,30.02,WSW,247,6.3,-999.0,28,-99.99,,,0.00,Acu-Link.com,2013-10-07 17:45:00,
2013-10-07 12:00:00,53.6,22.1,30.01,WSW,247,6.8,-999.0,29,-99.99,,,0.00,Acu-Link.com,2013-10-07 18:00:00,
2013-10-07 12:15:00,54.0,24.1,30.02,West,270,6.3,-999.0,31,-99.99,,,0.00,Acu-Link.com,2013-10-07 18:15:00,
2013-10-07 12:30:00,54.0,22.5,30.01,West,270,4.7,-999.0,29,-99.99,,,0.00,Acu-Link.com,2013-10-07 18:30:00,
2013-10-07 12:45:00,54.5,21.2,30.00,WNW,292,2.7,-999.0,27,-99.99,,,0.00,Acu-Link.com,2013-10-07 18:45:00,
2013-10-07 13:00:00,54.7,23.9,30.00,West,270,3.2,-999.0,30,-99.99,,,0.00,Acu-Link.com,2013-10-07 19:00:00,
2013-10-07 13:15:00,55.9,23.3,29.99,West,270,2.2,-999.0,28,-99.99,,,0.00,Acu-Link.com,2013-10-07 19:15:00,
2013-10-07 13:31:00,55.2,25.1,29.99,SW,225,3.7,-999.0,31,-99.99,,,0.00,Acu-Link.com,2013-10-07 19:31:00,
2013-10-07 13:46:00,56.7,24.8,29.98,ENE,67,3.7,-999.0,29,-99.99,,,0.00,Acu-Link.com,2013-10-07 19:46:00,
2013-10-07 14:01:00,57.0,24.2,29.98,WSW,247,3.2,-999.0,28,-99.99,,,0.00,Acu-Link.com,2013-10-07 20:01:00,
2013-10-07 14:16:00,57.2,25.2,29.98,WSW,247,3.2,-999.0,29,-99.99,,,0.00,Acu-Link.com,2013-10-07 20:16:00,
2013-10-07 14:31:00,56.3,24.5,29.97,SW,225,4.7,-999.0,29,-99.99,,,0.00,Acu-Link.com,2013-10-07 20:31:00,
2013-10-07 14:46:00,55.6,26.2,29.97,WSW,247,4.2,-999.0,32,-99.99,,,0.00,Acu-Link.com,2013-10-07 20:46:00,
2013-10-07 15:01:00,55.9,26.5,29.96,West,270,6.8,-999.0,32,-99.99,,,0.00,Acu-Link.com,2013-10-07 21:01:00,
2013-10-07 15:16:00,56.7,27.2,29.95,WSW,247,3.2,-999.0,32,-99.99,,,0.00,Acu-Link.com,2013-10-07 21:16:00,
2013-10-07 15:31:00,56.1,24.3,29.94,WNW,292,4.7,-999.0,29,-99.99,,,0.00,Acu-Link.com,2013-10-07 21:31:00,
2013-10-07 15:47:00,57.6,23.9,29.94,WSW,247,1.7,-999.0,27,-99.99,,,0.00,Acu-Link.com,2013-10-07 21:47:00,
2013-10-07 16:02:00,56.3,25.3,29.94,East,90,4.2,-999.0,30,-99.99,,,0.00,Acu-Link.com,2013-10-07 22:02:00,
2013-10-07 16:17:00,55.6,20.3,29.94,WSW,247,3.7,-999.0,25,-99.99,,,0.00,Acu-Link.com,2013-10-07 22:17:00,
2013-10-07 16:32:00,56.7,21.3,29.93,WSW,247,2.7,-999.0,25,-99.99,,,0.00,Acu-Link.com,2013-10-07 22:32:00,
2013-10-07 16:47:00,53.2,21.0,29.93,WNW,292,3.2,-999.0,28,-99.99,,,0.00,Acu-Link.com,2013-10-07 22:47:00,
2013-10-07 17:02:00,51.4,21.0,29.92,West,270,1.7,-999.0,30,-99.99,,,0.00,Acu-Link.com,2013-10-07 23:02:00,
2013-10-07 17:17:00,50.5,20.2,29.92,West,270,2.2,-999.0,30,-99.99,,,0.00,Acu-Link.com,2013-10-07 23:17:00,
2013-10-07 17:32:00,49.8,20.4,29.92,West,270,1.7,-999.0,31,-99.99,,,0.00,Acu-Link.com,2013-10-07 23:32:00,
2013-10-07 17:48:00,48.7,20.2,29.92,WNW,292,3.7,-999.0,32,-99.99,,,0.00,Acu-Link.com,2013-10-07 23:48:00,
2013-10-07 18:03:00,48.0,20.3,29.92,ENE,67,0.0,-999.0,33,-99.99,,,0.00,Acu-Link.com,2013-10-08 00:03:00,
2013-10-07 18:18:00,47.1,20.2,29.92,ENE,67,2.2,-999.0,34,-99.99,,,0.00,Acu-Link.com,2013-10-08 00:18:00,
2013-10-07 18:33:00,46.6,18.3,29.92,ENE,67,0.0,-999.0,32,-99.99,,,0.00,Acu-Link.com,2013-10-08 00:33:00,
2013-10-07 18:48:00,45.5,18.1,29.91,ENE,67,0.0,-999.0,33,-99.99,,,0.00,Acu-Link.com,2013-10-08 00:48:00,
2013-10-07 19:03:00,44.8,18.2,29.91,ENE,67,4.2,-999.0,34,-99.99,,,0.00,Acu-Link.com,2013-10-08 01:03:00,
2013-10-07 19:18:00,44.4,17.8,29.91,ENE,67,1.7,-999.0,34,-99.99,,,0.00,Acu-Link.com,2013-10-08 01:18:00,
2013-10-07 19:34:00,44.6,18.0,29.91,ENE,67,1.7,-999.0,34,-99.99,,,0.00,Acu-Link.com,2013-10-08 01:34:00,
2013-10-07 19:49:00,43.9,18.0,29.91,ENE,67,1.7,-999.0,35,-99.99,,,0.00,Acu-Link.com,2013-10-08 01:49:00,
2013-10-07 20:04:00,43.9,18.0,29.91,ENE,67,1.7,-999.0,35,-99.99,,,0.00,Acu-Link.com,2013-10-08 02:04:00,
2013-10-07 20:19:00,43.5,18.3,29.91,ENE,67,4.7,-999.0,36,-99.99,,,0.00,Acu-Link.com,2013-10-08 02:19:00,
2013-10-07 20:34:00,43.9,19.3,29.90,ENE,67,3.7,-999.0,37,-99.99,,,0.00,Acu-Link.com,2013-10-08 02:34:00,
2013-10-07 20:49:00,43.9,20.6,29.90,ENE,67,3.2,-999.0,39,-99.99,,,0.00,Acu-Link.com,2013-10-08 02:49:00,
2013-10-07 21:04:00,43.2,19.9,29.90,ENE,67,2.2,-999.0,39,-99.99,,,0.00,Acu-Link.com,2013-10-08 03:04:00,
2013-10-07 21:19:00,43.2,19.9,29.89,ENE,67,1.7,-999.0,39,-99.99,,,0.00,Acu-Link.com,2013-10-08 03:19:00,
2013-10-07 21:34:00,43.0,19.8,29.89,ENE,67,1.1,-999.0,39,-99.99,,,0.00,Acu-Link.com,2013-10-08 03:34:00,
2013-10-07 21:50:00,42.3,19.1,29.88,ENE,67,0.0,-999.0,39,-99.99,,,0.00,Acu-Link.com,2013-10-08 03:50:00,
2013-10-07 22:05:00,41.9,19.4,29.88,ENE,67,2.2,-999.0,40,-99.99,,,0.00,Acu-Link.com,2013-10-08 04:05:00,
2013-10-07 22:20:00,42.8,19.6,29.88,ENE,67,2.7,-999.0,39,-99.99,,,0.00,Acu-Link.com,2013-10-08 04:20:00,
2013-10-07 22:35:00,43.5,19.6,29.86,ENE,67,4.2,-999.0,38,-99.99,,,0.00,Acu-Link.com,2013-10-08 04:35:00,
2013-10-07 22:50:00,42.8,19.6,29.86,ENE,67,3.7,-999.0,39,-99.99,,,0.00,Acu-Link.com,2013-10-08 04:50:00,
2013-10-07 23:05:00,41.9,19.4,29.86,ENE,67,4.2,-999.0,40,-99.99,,,0.00,Acu-Link.com,2013-10-08 05:05:00,
2013-10-07 23:21:00,41.9,18.8,29.85,ENE,67,4.7,-999.0,39,-99.99,,,0.00,Acu-Link.com,2013-10-08 05:21:00,
2013-10-07 23:36:00,41.7,18.0,29.84,ENE,67,2.2,-999.0,38,-99.99,,,0.00,Acu-Link.com,2013-10-08 05:36:00,
2013-10-07 23:51:00,41.4,17.7,29.84,ENE,67,3.2,-999.0,38,-99.99,,,0.00,Acu-Link.com,2013-10-08 05:51:00,